This is the latest recevied weather packets stored in our database for station/object AD8BW. If no packets are shown the sender has not sent any weather packets the latest 10 day(s).
| Time | Temp. | Humidity | Pressure | Rain* | Wind** | Luminosity | Snow |
|---|---|---|---|---|---|---|---|
| 1777896197 | 10.56° C | 76% | 1003.7 hPa | 0 mm | - | 86 W/m² | - |
| 1777895596 | 10° C | 77% | 1003.9 hPa | 0 mm | - | 56 W/m² | - |
| 1777894996 | 10° C | 78% | 1003.8 hPa | 0 mm | - | 104 W/m² | - |
| 1777894396 | 9.44° C | 79% | 1003.7 hPa | 0 mm | - | 49 W/m² | - |
| 1777893801 | 9.44° C | 79% | 1003.8 hPa | 0 mm | - | 54 W/m² | - |
| 1777893198 | 8.89° C | 80% | 1003.7 hPa | 0 mm | - | 32 W/m² | - |
| 1777892593 | 8.89° C | 80% | 1003.6 hPa | 0 mm | - | 25 W/m² | - |
| 1777891995 | 8.33° C | 80% | 1003.6 hPa | 0 mm | - | 19 W/m² | - |
| 1777891397 | 8.33° C | 80% | 1003.6 hPa | 0 mm | - | 12 W/m² | - |
| 1777890793 | 8.89° C | 79% | 1003.6 hPa | 0 mm | - | 5 W/m² | - |
| 1777890191 | 8.89° C | 79% | 1003.7 hPa | 0 mm | - | 0 W/m² | - |
| 1777889594 | 8.89° C | 78% | 1003.7 hPa | 0 mm | - | 0 W/m² | - |
| 1777888993 | 8.89° C | 78% | 1003.6 hPa | 0 mm | - | 0 W/m² | - |
| 1777888393 | 8.89° C | 77% | 1003.6 hPa | 0 mm | - | 0 W/m² | - |
| 1777887791 | 8.89° C | 77% | 1003.7 hPa | 0 mm | - | 0 W/m² | - |
| 1777887190 | 9.44° C | 76% | 1003.8 hPa | 0 mm | - | 0 W/m² | - |
| 1777886590 | 9.44° C | 76% | 1003.9 hPa | 0 mm | - | 0 W/m² | - |
| 1777885987 | 9.44° C | 76% | 1003.9 hPa | 0 mm | - | 0 W/m² | - |
| 1777885387 | 9.44° C | 76% | 1004 hPa | 0 mm | - | 0 W/m² | - |
| 1777884786 | 9.44° C | 76% | 1003.9 hPa | 0 mm | - | 0 W/m² | - |
| 1777884191 | 9.44° C | 76% | 1004.1 hPa | 0 mm | - | 0 W/m² | - |
| 1777883588 | 9.44° C | 75% | 1004.1 hPa | 0 mm | - | 0 W/m² | - |
| 1777882986 | 9.44° C | 75% | 1004.2 hPa | 0 mm | - | 0 W/m² | - |
| 1777882388 | 9.44° C | 74% | 1004.3 hPa | 0 mm | - | 0 W/m² | - |
| 1777881788 | 9.44° C | 74% | 1004.3 hPa | 0 mm | - | 0 W/m² | - |
* Rain latest hour (hover to see other rain measurements)
** Current wind speed in m/s (hover to see current wind gust speed)